Search your local weather  

 

Hazardous Weather Conditions

No active alerts for CHICAGO, ILLINOIS

Current Conditions: CHICAGO, ILLINOIS

Fair


65.0 F

Last Updated on Sep 22 2020, 8:52 pm CDT
Humidity: 73%
Wind Speed: N 0.0 mph
Barometer 30.09 in
Dewpoint: 55.9 F
Visibility: 10.00 mi
Precip: --
Heat Index: NA
Wind Chill: NA
Current conditions at:

Chicago / Wheeling, Pal-Waukee Airport, IL (KPWK)

Lat: 42.12083 Lon: -87.90472

Local Radar Image active severe weather and emergency alerts image image weather storm and storm spotter reports image weather observation monitoring service image
Local
Radar
Active
Alerts
Storm Reports Weather
Monitoring

Sign-up For Email & Text Message Weather Alert Notification Services



Advertise Here

Observation History for CHICAGO, ILLINOIS


Time Wind
(mph)
Vis
(mi)
Weather Precip (in) Temperature (F) Relative
Humidity
Wind
Chill
(F)
Heat
Index
(F)
Pressure
Air Dwpt altimeter
(in)
sea level
(mb)
8:52 pm CDT N 0.0 10.00 Fair -- 65.0 55.9 73% NA NA 30.09 1019.0
7:52 pm CDT N 0.0 10.00 Fair -- 65.0 55.0 70% NA NA 30.10 1019.1
6:52 pm CDT SW 3.5 10.00 Fair -- 76.0 53.1 45% NA NA 30.09 1018.8
5:52 pm CDT SW 5.8 10.00 Fair -- 78.0 52.0 40% NA NA 30.09 1018.7
4:52 pm CDT S 8.1 10.00 Fair -- 79.0 52.0 39% NA NA 30.09 1018.9
3:52 pm CDT 10.00 Fair -- 80.0 53.1 39% NA 80 30.10 1019.2
2:52 pm CDT SW 4.6 10.00 Fair -- 79.0 55.0 44% NA NA 30.13 1019.9
1:52 pm CDT S 8.1 10.00 Fair -- 79.0 55.0 44% NA NA 30.15 1020.7
12:52 pm CDT W 8.1 10.00 Fair -- 77.0 55.0 47% NA NA 30.17 1021.3
10:52 am CDT SW 5.8 10.00 Fair -- 71.0 54.0 55% NA NA 30.22 1023.1
9:52 am CDT S 4.6 10.00 Fair -- 65.0 51.1 61% NA NA 30.23 1023.5
8:52 am CDT SW 3.5 10.00 Fair -- 60.0 51.1 72% NA NA 30.23 1023.7
7:52 am CDT N 0.0 10.00 Fair -- 56.0 48.9 77% NA NA 30.23 1023.8
6:52 am CDT N 0.0 10.00 Fair -- 51.0 46.9 86% NA NA 30.24 1024.0
5:52 am CDT N 0.0 10.00 Fair -- 52.0 48.9 89% NA NA 30.24 1023.8
4:52 am CDT N 0.0 10.00 Fair -- 52.0 48.9 89% NA NA 30.23 1023.7
3:52 am CDT N 0.0 10.00 Fair -- 52.0 50.0 93% NA NA 30.23 1023.6
2:52 am CDT N 0.0 10.00 Fair -- 51.0 48.9 92% NA NA 30.24 1023.8
1:52 am CDT N 0.0 10.00 Fair -- 54.0 52.0 93% NA NA 30.24 1024.0
12:52 am CDT N 0.0 10.00 Fair -- 55.0 51.1 87% NA NA 30.24 1024.0
11:52 pm CDT N 0.0 10.00 Fair -- 57.0 52.0 83% NA NA 30.25 1024.4
10:52 pm CDT N 0.0 10.00 Fair -- 58.0 54.0 87% NA NA 30.26 1024.6
9:52 pm CDT N 0.0 10.00 Fair -- 59.0 53.1 81% NA NA 30.25 1024.1

Regional Weather Observation

Chicago, Chicago-OHare International Airport, IL (KORD)

Fair
70.0 F

Chicago/Waukegan Regional Airport, IL (KUGN)

Fair
60.0 F

Chicago, Chicago Midway Airport, IL (KMDW)

Fair
70.0 F

Kenosha, Kenosha Regional Airport, WI (KENW)

Fair
62.0 F

Chicago / West Chicago, Dupage Airport, IL (KDPA)

Fair
65.0 F

Racine, Batten International Airport, WI (KRAC)

Fair
64.0 F

Advertise Here


Advertise Here